• In Kazakhstan
  • List of Countries
  • For 7 days
  • Water Temperature
  • Satellite Maps
  • Weather Map
  • News
  • Weather Widgets
  • user-avatar
    Login

    Hourly Weather Jefferson City

    Today, 25 November, Saturday

    Time Temperature Precipitation Wind Pressure Humidity
    00:00 +13°C° 0 mm 3 mps 741 mmHg 65%
    01:00 +12°C° 0 mm 3 mps 742 mmHg 67%
    02:00 +11°C° 0 mm 3 mps 742 mmHg 69%
    03:00 +10°C° 0 mm 4 mps 743 mmHg 70%
    04:00 +9°C° 0 mm 3 mps 744 mmHg 72%
    05:00 +8°C° 0 mm 3 mps 745 mmHg 73%
    06:00 +7°C° 0 mm 2 mps 745 mmHg 74%
    07:00 +8°C° 0 mm 2 mps 746 mmHg 69%
    08:00 +9°C° 0 mm 3 mps 747 mmHg 64%
    09:00 +9°C° 0 mm 3 mps 748 mmHg 59%
    10:00 +11°C° 0 mm 3 mps 748 mmHg 53%
    11:00 +12°C° 0 mm 3 mps 748 mmHg 47%
    12:00 +14°C° 0 mm 3 mps 749 mmHg 41%
    13:00 +14°C° 0 mm 3 mps 749 mmHg 40%
    14:00 +14°C° 0 mm 3 mps 749 mmHg 40%
    15:00 +14°C° 0 mm 3 mps 749 mmHg 39%
    16:00 +14°C° 0 mm 2 mps 749 mmHg 45%
    17:00 +12°C° 0 mm 2 mps 750 mmHg 51%
    18:00 +10°C° 0 mm 1 mps 750 mmHg 57%
    19:00 +9°C° 0 mm 1 mps 750 mmHg 58%
    20:00 +9°C° 0 mm 1 mps 751 mmHg 60%
    21:00 +8°C° 0 mm 1 mps 751 mmHg 62%
    22:00 +8°C° 0 mm 1 mps 751 mmHg 62%
    23:00 +8°C° 0 mm 1 mps 751 mmHg 63%

    Tomorrow, 26 November, Sunday

    Time Temperature Precipitation Wind Pressure Humidity
    00:00 +7°C° 0 mm 1 mps 752 mmHg 64%
    01:00 +7°C° 0 mm 1 mps 752 mmHg 64%
    02:00 +7°C° 0 mm 1 mps 752 mmHg 65%
    03:00 +7°C° 0 mm 1 mps 752 mmHg 65%
    04:00 +6°C° 0 mm 2 mps 752 mmHg 65%
    05:00 +5°C° 0 mm 2 mps 752 mmHg 66%
    06:00 +5°C° 0 mm 2 mps 752 mmHg 67%
    07:00 +6°C° 0 mm 2 mps 752 mmHg 63%
    08:00 +8°C° 0 mm 2 mps 752 mmHg 59%
    09:00 +9°C° 0 mm 2 mps 752 mmHg 56%
    10:00 +11°C° 0 mm 3 mps 752 mmHg 51%
    11:00 +13°C° 0 mm 3 mps 751 mmHg 45%
    12:00 +16°C° 0 mm 3 mps 751 mmHg 40%
    13:00 +16°C° 0 mm 3 mps 750 mmHg 40%
    14:00 +16°C° 0 mm 3 mps 750 mmHg 39%
    15:00 +17°C° 0 mm 3 mps 749 mmHg 39%
    16:00 +14°C° 0 mm 3 mps 749 mmHg 44%
    17:00 +12°C° 0 mm 3 mps 749 mmHg 50%
    18:00 +10°C° 0 mm 2 mps 749 mmHg 55%
    19:00 +10°C° 0 mm 2 mps 749 mmHg 57%
    20:00 +9°C° 0 mm 2 mps 749 mmHg 60%
    21:00 +8°C° 0 mm 3 mps 749 mmHg 62%
    22:00 +8°C° 0 mm 3 mps 748 mmHg 63%
    23:00 +8°C° 0 mm 3 mps 748 mmHg 63%

    Day after tomorrow, 27 November, Monday

    Time Temperature Precipitation Wind Pressure Humidity
    00:00 +8°C° 0 mm 3 mps 748 mmHg 64%
    01:00 +8°C° 0 mm 3 mps 748 mmHg 65%
    02:00 +8°C° 0 mm 3 mps 748 mmHg 66%
    03:00 +8°C° 0 mm 3 mps 747 mmHg 66%
    04:00 +8°C° 0 mm 3 mps 747 mmHg 68%
    05:00 +8°C° 0 mm 3 mps 747 mmHg 69%
    06:00 +8°C° 0 mm 3 mps 747 mmHg 71%
    07:00 +8°C° 0 mm 4 mps 747 mmHg 67%
    08:00 +10°C° 0 mm 4 mps 747 mmHg 64%
    09:00 +10°C° 0 mm 5 mps 747 mmHg 60%
    10:00 +13°C° 0 mm 5 mps 746 mmHg 57%
    11:00 +15°C° 0 mm 5 mps 746 mmHg 53%
    12:00 +17°C° 0 mm 5 mps 745 mmHg 50%
    13:00 +19°C° 0 mm 5 mps 745 mmHg 50%
    14:00 +19°C° 0 mm 5 mps 744 mmHg 50%
    15:00 +20°C° 0 mm 5 mps 743 mmHg 50%
    16:00 +17°C° 0 mm 5 mps 743 mmHg 53%
    17:00 +16°C° 0 mm 5 mps 743 mmHg 56%
    18:00 +15°C° 0 mm 5 mps 743 mmHg 58%
    19:00 +14°C° 0 mm 5 mps 743 mmHg 58%
    20:00 +14°C° 0 mm 6 mps 743 mmHg 57%
    21:00 +14°C° 0 mm 6 mps 742 mmHg 57%
    22:00 +13°C° 0 mm 6 mps 742 mmHg 58%
    23:00 +13°C° 0 mm 5 mps 742 mmHg 59%

    28 November, Tuesday

    Time Temperature Precipitation Wind Pressure Humidity
    00:00 +12°C° 0 mm 5 mps 742 mmHg 61%
    01:00 +12°C° 0 mm 5 mps 742 mmHg 61%
    02:00 +12°C° 0 mm 5 mps 742 mmHg 61%
    03:00 +11°C° 0 mm 6 mps 742 mmHg 61%
    04:00 +12°C° 0 mm 5 mps 742 mmHg 62%
    05:00 +12°C° 0 mm 5 mps 742 mmHg 63%
    06:00 +12°C° 0 mm 5 mps 742 mmHg 64%
    07:00 +13°C° 0 mm 5 mps 743 mmHg 64%
    08:00 +14°C° 0 mm 5 mps 743 mmHg 63%
    09:00 +14°C° 0 mm 6 mps 744 mmHg 63%
    10:00 +15°C° 0 mm 5 mps 744 mmHg 62%
    11:00 +16°C° 0 mm 5 mps 744 mmHg 61%
    12:00 +19°C° 0 mm 5 mps 744 mmHg 61%
    13:00 +18°C° 0 mm 4 mps 744 mmHg 65%
    14:00 +17°C° 0 mm 3 mps 744 mmHg 69%
    15:00 +17°C° 0 mm 2 mps 745 mmHg 73%
    16:00 +16°C° 0.1 mm 2 mps 746 mmHg 76%
    17:00 +16°C° 0.1 mm 2 mps 746 mmHg 80%
    18:00 +15°C° 0.1 mm 2 mps 747 mmHg 83%
    19:00 +13°C° 0.1 mm 3 mps 748 mmHg 83%
    20:00 +13°C° 0.1 mm 3 mps 748 mmHg 83%
    21:00 +12°C° 0.1 mm 4 mps 749 mmHg 83%
    22:00 +11°C° 0.4 mm 4 mps 749 mmHg 81%
    23:00 +11°C° 0.4 mm 4 mps 749 mmHg 79%

    29 November, Wednesday

    Time Temperature Precipitation Wind Pressure Humidity
    00:00 +9°C° 0.4 mm 5 mps 750 mmHg 78%
    01:00 +10°C° 0.2 mm 4 mps 749 mmHg 78%
    02:00 +10°C° 0.2 mm 4 mps 749 mmHg 77%
    03:00 +8°C° 0.2 mm 4 mps 749 mmHg 77%
    04:00 +8°C° 0.2 mm 4 mps 749 mmHg 78%
    05:00 +8°C° 0.2 mm 4 mps 750 mmHg 80%
    06:00 +8°C° 0.2 mm 4 mps 750 mmHg 81%
    07:00 +8°C° 0 mm 4 mps 750 mmHg 80%
    08:00 +10°C° 0 mm 4 mps 750 mmHg 79%
    09:00 +10°C° 0 mm 3 mps 750 mmHg 78%
    10:00 +11°C° 0 mm 3 mps 749 mmHg 73%
    11:00 +13°C° 0 mm 3 mps 749 mmHg 69%
    12:00 +14°C° 0 mm 3 mps 749 mmHg 64%
    13:00 +16°C° 0 mm 2 mps 748 mmHg 63%
    14:00 +16°C° 0 mm 2 mps 748 mmHg 62%
    15:00 +17°C° 0 mm 2 mps 747 mmHg 61%
    16:00 +16°C° 0 mm 2 mps 747 mmHg 67%
    17:00 +14°C° 0 mm 2 mps 747 mmHg 72%
    18:00 +13°C° 0 mm 2 mps 747 mmHg 77%
    19:00 +13°C° 0 mm 2 mps 748 mmHg 80%
    20:00 +12°C° 0 mm 1 mps 748 mmHg 82%
    21:00 +12°C° 0 mm 1 mps 748 mmHg 85%
    22:00 +12°C° 0 mm 2 mps 748 mmHg 85%
    23:00 +12°C° 0 mm 2 mps 748 mmHg 86%

    30 November, Thursday

    Time Temperature Precipitation Wind Pressure Humidity
    00:00 +11°C° 0 mm 3 mps 748 mmHg 86%
    01:00 +10°C° 0.1 mm 4 mps 748 mmHg 83%
    02:00 +10°C° 0.1 mm 4 mps 749 mmHg 79%
    03:00 +8°C° 0.1 mm 5 mps 749 mmHg 75%
    04:00 +7°C° 0 mm 4 mps 749 mmHg 72%
    05:00 +6°C° 0 mm 4 mps 750 mmHg 69%
    06:00 +5°C° 0 mm 4 mps 750 mmHg 66%
    07:00 +6°C° 0 mm 5 mps 751 mmHg 62%
    08:00 +6°C° 0 mm 5 mps 752 mmHg 58%
    09:00 +7°C° 0 mm 6 mps 752 mmHg 53%
    10:00 +7°C° 0 mm 6 mps 753 mmHg 50%
    11:00 +8°C° 0 mm 6 mps 753 mmHg 47%
    12:00 +9°C° 0 mm 6 mps 753 mmHg 44%
    13:00 +9°C° 0 mm 6 mps 753 mmHg 42%
    14:00 +9°C° 0 mm 5 mps 753 mmHg 40%
    15:00 +9°C° 0 mm 5 mps 753 mmHg 38%
    16:00 +7°C° 0 mm 4 mps 753 mmHg 43%
    17:00 +5°C° 0 mm 3 mps 754 mmHg 47%
    18:00 +5°C° 0 mm 2 mps 754 mmHg 52%
    19:00 +4°C° 0 mm 2 mps 755 mmHg 53%
    20:00 +4°C° 0 mm 2 mps 755 mmHg 54%
    21:00 +3°C° 0 mm 2 mps 755 mmHg 55%
    22:00 +3°C° 0 mm 2 mps 755 mmHg 55%
    23:00 +3°C° 0 mm 2 mps 755 mmHg 56%
    Show more